[[{"header":{"parameterUnit":"m.s-1","parameterCategory":1,"la1":30.2991,"la2":30.254,"lo1":-89.0895,"lo2":-89.0444,"dy":0.0017,"dx":0.0017,"nx":28,"ny":28,"refTime":"2024-04-20T09:00:00:Z","depth":0,"parameterNumber":2,"parameterNumberName":"U-component_of_WINDS"},"data":[0,0,0,0,0,0,0,0,0,0,0,0,0,0,0,0,0,0,0,0,0,0,0,0,0,0,0,0,0,0,0,0,0,0,0,0,0,0,0,0,0,0,0,0,0,0,0,0,0,0,0,0,0,0,0,0,0,0,-1.3114,-1.3113,0,-1.3047,-1.3047,-1.3046,-1.3002,-1.3002,-1.3001,-1.3001,-1.2931,-1.2929,-1.2928,0,0,0,0,0,0,0,0,0,0,0,0,0,-1.3202,-1.3201,-1.3114,-1.3113,-1.3112,-1.3047,-1.3047,-1.3046,-1.3002,-1.3002,-1.3001,-1.3001,-1.2931,-1.2929,-1.2927,0,0,0,0,0,0,0,0,0,0,0,0,0,-1.3152,-1.32,-1.3114,-1.3083,-1.3079,-1.3048,-1.3046,-1.3045,-1.3002,-1.3002,-1.3001,-1.3001,-1.2932,-1.293,-1.2927,-1.2921,0,0,-1.292,-1.2919,0,0,0,0,0,0,0,0,-1.3155,-1.3149,-1.3088,-1.3085,-1.3081,-1.3033,-1.3052,-1.3003,-1.3002,-1.3031,-1.3001,-1.3001,-1.2965,-1.296,-1.2948,-1.2917,-1.2914,-1.292,-1.2918,-1.2917,-1.2916,0,0,0,0,0,0,0,-1.3159,-1.3152,-1.3088,-1.3087,-1.3083,-1.3072,-1.3064,-1.3042,-1.3001,-1.3029,-1.3025,-1.3018,-1.2963,-1.295,-1.2946,-1.2913,-1.292,-1.2918,-1.2916,-1.2915,-1.2874,-1.2874,0,0,0,0,0,0,-1.3167,-1.3155,-1.309,-1.3086,-1.3118,-1.307,-1.3062,-1.3049,-1.3001,-1.2994,-1.3019,-1.3017,-1.2955,-1.2949,-1.2943,-1.2932,-1.2917,-1.2915,-1.2913,-1.2873,-1.2874,-1.2874,0,0,0,0,0,0,-1.317,-1.3162,-1.3092,-1.3119,-1.311,-1.3069,-1.3055,-1.3047,-1.3035,-1.2994,-1.2986,-1.3014,-1.2954,-1.2947,-1.2927,-1.2929,-1.2914,-1.2912,-1.2873,-1.2874,-1.2874,-1.2911,0,0,0,0,0,0,-1.3172,-1.3163,-1.3161,-1.312,-1.3108,-1.3078,-1.3055,-1.3046,-1.3031,-1.3028,-1.2987,-1.298,-1.2953,-1.2931,-1.2924,-1.2926,-1.291,-1.2873,-1.2873,-1.2874,-1.2909,-1.2913,-1.2916,0,0,0,0,0,-1.3176,-1.3173,-1.3161,-1.3153,-1.3105,-1.3078,-1.3071,-1.3041,-1.3032,-1.3029,-1.3002,-1.2981,-1.293,-1.2929,-1.2922,-1.2922,-1.2872,-1.2873,-1.2874,-1.2908,-1.2912,-1.2915,0,0,0,0,0,0,-1.3215,-1.3167,-1.3153,-1.3137,-1.3112,-1.3071,-1.3066,-1.3047,-1.3023,-1.3021,-1.2984,-1.2975,-1.2959,-1.2938,-1.2938,-1.2913,-1.2899,-1.2898,-1.2927,-1.2931,-1.2934,-1.2939,-1.2908,0,0,0,0,0,-1.3222,-1.3205,-1.3164,-1.3154,-1.3142,-1.3106,-1.3093,-1.3073,-1.3045,-1.3034,-1.3005,-1.2979,-1.2956,-1.2942,-1.292,-1.2906,-1.2896,-1.2903,-1.2906,-1.2909,-1.2909,-1.29,-1.2902,-1.2877,-1.2877,-1.2877,0,0,-1.3236,-1.3208,-1.3199,-1.3161,-1.3139,-1.3122,-1.3097,-1.308,-1.3066,-1.3031,-1.301,-1.2989,-1.2956,-1.2939,-1.2931,-1.2922,-1.2914,-1.291,-1.2913,-1.2911,-1.2901,-1.2903,-1.2906,-1.2877,-1.2877,-1.2877,0,0,-1.3252,-1.323,-1.3219,-1.3197,-1.3165,-1.3141,-1.3138,-1.31,-1.3084,-1.3063,-1.3036,-1.3019,-1.2982,-1.296,-1.2944,-1.2952,-1.2932,-1.2946,-1.2962,-1.2954,-1.2956,-1.2957,-1.296,-1.2962,-1.2946,-1.2946,-1.2946,0,-1.3274,-1.3247,-1.3216,-1.32,-1.3184,-1.3151,-1.314,-1.3121,-1.3082,-1.3071,-1.3063,-1.3015,-1.2991,-1.2969,-1.2971,-1.2959,-1.2954,-1.295,-1.2958,-1.2959,-1.296,-1.2963,-1.2964,-1.2948,-1.2948,-1.2947,-1.2947,0,-1.3274,-1.3256,-1.3251,-1.3216,-1.3199,-1.3186,-1.3152,-1.3139,-1.312,-1.3097,-1.3076,-1.3046,-1.3016,-1.301,-1.299,-1.2984,-1.298,-1.2965,-1.295,-1.2965,-1.2967,-1.2967,-1.2951,-1.295,-1.2949,-1.2949,0,0,-1.3313,-1.3261,-1.326,-1.3243,-1.3204,-1.3189,-1.3174,-1.3146,-1.3136,-1.311,-1.3096,-1.3066,-1.3052,-1.3034,-1.3012,-1.3005,-1.3013,-1.299,-1.2989,-1.2995,-1.3004,-1.3015,-1.3017,-1.3,-1.3,-1.3,-1.3007,0,-1.3324,-1.3296,-1.3267,-1.3249,-1.3232,-1.3201,-1.3188,-1.3162,-1.314,-1.3122,-1.3097,-1.3076,-1.306,-1.3049,-1.304,-1.3014,-1.3014,-1.3013,-1.2986,-1.2985,-1.2994,-1.3017,-1.3029,-1.3037,-1.3007,-1.3007,-1.3007,0,-1.3332,-1.3309,-1.3289,-1.3252,-1.3244,-1.3233,-1.3205,-1.3188,-1.3158,-1.3143,-1.3123,-1.31,-1.3082,-1.3069,-1.3043,-1.3043,-1.303,-1.3015,-1.3015,-1.3011,-1.2997,-1.3014,-1.3039,-1.304,-1.3008,-1.3008,-1.3008,0,-1.3362,-1.3326,-1.3309,-1.3296,-1.3253,-1.3245,-1.3227,-1.3197,-1.3182,-1.3158,-1.3147,-1.3121,-1.3106,-1.3086,-1.3056,-1.3049,-1.3033,-1.3018,-1.3019,-1.302,-1.3017,-1.3018,-1.304,-1.301,-1.301,-1.301,-1.301,0,-1.3377,-1.3366,-1.3322,-1.3312,-1.3299,-1.3266,-1.3254,-1.3232,-1.3206,-1.3191,-1.3162,-1.3148,-1.311,-1.3091,-1.3067,-1.3049,-1.3043,-1.303,-1.3023,-1.3032,-1.3034,-1.3023,-1.3021,-1.301,-1.301,-1.301,-1.301,0,-1.3408,-1.3379,-1.3358,-1.3319,-1.3309,-1.3301,-1.3267,-1.3256,-1.3233,-1.3214,-1.3207,-1.317,-1.3147,-1.3115,-1.3082,-1.3066,-1.3051,-1.3041,-1.3061,-1.3057,-1.306,-1.306,-1.3076,-1.3077,-1.3047,-1.3047,-1.3047,0,-1.3419,-1.341,-1.337,-1.3358,-1.3341,-1.3322,-1.3307,-1.3274,-1.3259,-1.3225,-1.3218,-1.3192,-1.317,-1.3134,-1.3104,-1.3078,-1.3067,-1.3075,-1.3063,-1.3072,-1.3067,-1.3067,-1.3066,-1.3077,-1.3078,-1.3078,-1.3078,0,-1.3442,-1.3428,-1.3407,-1.3382,-1.3364,-1.3342,-1.3319,-1.3311,-1.3273,-1.3258,-1.3234,-1.3217,-1.3183,-1.3158,-1.3128,-1.3108,-1.3087,-1.3083,-1.3081,-1.309,-1.3102,-1.3095,-1.3068,-1.3082,-1.3082,-1.3081,-1.3081,-1.3081,-1.3463,-1.3454,-1.3424,-1.3402,-1.3381,-1.336,-1.3348,-1.3323,-1.3303,-1.3273,-1.3255,-1.3232,-1.3202,-1.316,-1.3141,-1.3122,-1.3113,-1.3112,-1.3111,-1.3111,-1.3114,-1.3105,-1.3116,-1.3116,-1.3116,-1.3116,-1.3116,0,-1.3484,-1.3464,-1.3444,-1.3412,-1.3395,-1.3378,-1.3351,-1.3337,-1.3317,-1.3292,-1.3271,-1.3243,-1.3218,-1.3187,-1.316,-1.315,-1.314,-1.3144,-1.3144,-1.314,-1.3123,-1.3127,-1.3153,-1.3153,-1.3153,-1.3153,-1.3153,-1.3153,-1.3493,-1.3476,-1.3458,-1.343,-1.341,-1.3387,-1.3373,-1.3354,-1.3333,-1.3304,-1.3283,-1.3263,-1.3235,-1.3206,-1.3182,-1.3173,-1.3164,-1.3172,-1.316,-1.3145,-1.3141,-1.3138,-1.3141,-1.317,-1.317,-1.3178,-1.3178,-1.3178]},{"header":{"parameterUnit":"m.s-1","parameterCategory":1,"la1":30.2991,"la2":30.254,"lo1":-89.0895,"lo2":-89.0444,"dy":0.0017,"dx":0.0017,"nx":28,"ny":28,"refTime":"2024-04-20T09:00:00:Z","depth":0,"parameterNumber":3,"parameterNumberName":"V-component_of_WINDS"},"data":[0,0,0,0,0,0,0,0,0,0,0,0,0,0,0,0,0,0,0,0,0,0,0,0,0,0,0,0,0,0,0,0,0,0,0,0,0,0,0,0,0,0,0,0,0,0,0,0,0,0,0,0,0,0,0,0,0,0,1.2991,1.299,0,1.294,1.294,1.2939,1.2878,1.2877,1.2876,1.2876,1.2821,1.2821,1.282,0,0,0,0,0,0,0,0,0,0,0,0,0,1.3034,1.3033,1.2991,1.299,1.299,1.2941,1.294,1.2939,1.2879,1.2877,1.2876,1.2875,1.2822,1.2821,1.282,0,0,0,0,0,0,0,0,0,0,0,0,0,1.3002,1.3033,1.2991,1.2954,1.295,1.2941,1.294,1.2939,1.2879,1.2877,1.2876,1.2875,1.2822,1.2821,1.282,1.2843,0,0,1.2817,1.2817,0,0,0,0,0,0,0,0,1.3004,1.3001,1.296,1.2956,1.2952,1.2914,1.2935,1.2907,1.2879,1.2906,1.2876,1.2874,1.2853,1.285,1.2843,1.284,1.2838,1.2817,1.2817,1.2816,1.2816,0,0,0,0,0,0,0,1.3006,1.3003,1.2971,1.2959,1.2954,1.2939,1.2933,1.2929,1.2888,1.2903,1.2899,1.2894,1.2851,1.2844,1.2842,1.2837,1.2817,1.2817,1.2816,1.2816,1.2852,1.2853,0,0,0,0,0,0,1.3014,1.3005,1.2973,1.2969,1.2975,1.2939,1.2933,1.2928,1.2888,1.288,1.2895,1.2891,1.2846,1.2843,1.2839,1.2864,1.2816,1.2816,1.2815,1.285,1.2852,1.2854,0,0,0,0,0,0,1.3016,1.3012,1.2975,1.2986,1.298,1.294,1.2935,1.2928,1.2921,1.2882,1.2874,1.2896,1.2845,1.2841,1.2843,1.2861,1.2815,1.2815,1.2849,1.2851,1.2853,1.2914,0,0,0,0,0,0,1.3017,1.3013,1.3022,1.2987,1.298,1.298,1.2936,1.2928,1.292,1.2914,1.288,1.2873,1.2844,1.2845,1.2842,1.2859,1.2814,1.2847,1.285,1.2852,1.291,1.2918,1.2925,0,0,0,0,0,1.3019,1.304,1.3022,1.3019,1.299,1.2981,1.2977,1.2943,1.2922,1.293,1.2905,1.2874,1.286,1.2845,1.2842,1.2859,1.2845,1.2849,1.2852,1.2907,1.2917,1.2925,0,0,0,0,0,0,1.3077,1.3035,1.3014,1.3025,1.3007,1.2971,1.298,1.2954,1.2941,1.2936,1.2894,1.2887,1.2894,1.2877,1.2861,1.288,1.2848,1.2851,1.2891,1.29,1.2907,1.2911,1.2813,0,0,0,0,0,1.3091,1.3088,1.3051,1.3064,1.3056,1.302,1.3015,1.299,1.297,1.2962,1.2936,1.2917,1.2908,1.2903,1.2892,1.2908,1.2899,1.2918,1.2925,1.2931,1.2934,1.2942,1.295,1.2865,1.2865,1.2864,0,0,1.312,1.3097,1.3097,1.3075,1.3058,1.3056,1.3014,1.3013,1.301,1.2961,1.2962,1.2943,1.2919,1.2928,1.2931,1.2914,1.2956,1.2936,1.2941,1.294,1.2946,1.2954,1.2961,1.2867,1.2866,1.2866,0,0,1.3172,1.3154,1.3163,1.3148,1.3123,1.3099,1.3102,1.3069,1.3055,1.3056,1.3019,1.3016,1.3001,1.2985,1.2975,1.3023,1.2995,1.3021,1.3059,1.3067,1.3073,1.3079,1.3097,1.3103,1.3024,1.3024,1.3024,0,1.3211,1.3206,1.3171,1.3173,1.3164,1.3121,1.313,1.3116,1.3089,1.3084,1.3066,1.3048,1.3028,1.3033,1.3045,1.3039,1.304,1.3024,1.3075,1.3081,1.3086,1.3102,1.3109,1.3027,1.3027,1.3027,1.3026,0,1.3256,1.3253,1.3263,1.324,1.3233,1.3238,1.3203,1.32,1.3177,1.3155,1.3157,1.3132,1.3116,1.3115,1.3092,1.3118,1.3108,1.3083,1.305,1.3098,1.3112,1.3118,1.3032,1.3031,1.303,1.3029,0,0,1.3342,1.33,1.3304,1.3294,1.3264,1.3261,1.3265,1.3251,1.3249,1.3232,1.3234,1.3224,1.3201,1.319,1.3165,1.3171,1.3212,1.3146,1.3144,1.3159,1.3239,1.3259,1.3266,1.3193,1.3194,1.3195,1.3242,0,1.3388,1.3393,1.3362,1.3374,1.3372,1.3331,1.3334,1.3317,1.3296,1.3291,1.3268,1.3262,1.3232,1.3225,1.323,1.3206,1.3227,1.3202,1.3194,1.3195,1.3202,1.3274,1.3294,1.3339,1.3247,1.3248,1.3249,0,1.3443,1.3431,1.3444,1.3415,1.3413,1.3416,1.3401,1.3397,1.3376,1.3361,1.3349,1.3321,1.3322,1.3291,1.3293,1.3276,1.3271,1.3259,1.326,1.3258,1.3225,1.3274,1.3352,1.336,1.3257,1.3256,1.3256,0,1.3505,1.3492,1.3498,1.349,1.3456,1.346,1.3446,1.3424,1.3418,1.3404,1.34,1.3387,1.338,1.337,1.3339,1.3319,1.3344,1.331,1.3331,1.3332,1.3338,1.3338,1.3417,1.3335,1.3335,1.3335,1.3335,0,1.356,1.357,1.3526,1.353,1.3539,1.3504,1.3514,1.3496,1.3477,1.3476,1.344,1.344,1.3399,1.3394,1.337,1.3375,1.3372,1.3359,1.3353,1.3363,1.3365,1.3359,1.3355,1.3337,1.3336,1.3336,1.3335,0,1.3631,1.3602,1.3606,1.3575,1.3567,1.3576,1.3548,1.3551,1.3529,1.3529,1.3526,1.3492,1.3485,1.3453,1.3438,1.3421,1.3435,1.3422,1.3443,1.3438,1.3461,1.346,1.354,1.3549,1.3461,1.3461,1.3462,0,1.3669,1.3675,1.3645,1.3643,1.3631,1.3627,1.3621,1.3586,1.3581,1.3559,1.3564,1.3555,1.3545,1.3536,1.3509,1.3498,1.3484,1.3513,1.3482,1.3492,1.3485,1.3485,1.3486,1.3519,1.352,1.3521,1.3522,0,1.3738,1.3724,1.3717,1.3706,1.37,1.3689,1.3675,1.3675,1.3637,1.3633,1.3626,1.3619,1.3605,1.3596,1.358,1.3565,1.3538,1.3532,1.3537,1.3547,1.3559,1.3554,1.3461,1.353,1.353,1.3529,1.3529,1.3528,1.3794,1.3798,1.3778,1.3772,1.3759,1.3747,1.3748,1.3727,1.3721,1.3707,1.3687,1.3683,1.3663,1.3639,1.3627,1.3623,1.3607,1.3613,1.3615,1.3617,1.3623,1.356,1.362,1.362,1.3619,1.3619,1.3619,0,1.3862,1.3847,1.3842,1.3825,1.3821,1.3796,1.3781,1.3778,1.3776,1.3759,1.3751,1.3744,1.3736,1.3709,1.3697,1.37,1.3687,1.3698,1.3697,1.3695,1.3637,1.3635,1.3709,1.3709,1.3709,1.3709,1.3709,1.3709,1.3897,1.3904,1.3887,1.3887,1.3872,1.3869,1.3862,1.3852,1.3839,1.3833,1.3826,1.3809,1.3788,1.3776,1.3767,1.3759,1.3757,1.3772,1.3761,1.3707,1.3699,1.369,1.3688,1.3772,1.3772,1.3818,1.3819,1.3819]}]]